OPS 4682 DEB, 38450

Orbit data source: Space-Track

OPS 4682 DEB, 38450 is space debris in LEO originally from a launch on Sat, 03 Apr 1965 UTC launched from the Air Force Western Test Range (AFWTR). Debris objects in space refer to the collection of defunct objects orbiting the Earth. Examples of debris include non-operational satellites, rocket bodies, and fragments generated from explosions, collisions, or faulty payload assembly.

Loading next visibility...
Identifier
38450, 1965-027FF
Orbit
LEO
Country
Flag of USUS
Related business
Manufacturer
Unknown
Mission
Spacecraft
Bus & Motor
Unknown
Mass
Unknown
Launch date (UTC)
1965-04-03 (61 years ago)
Launch vehicle
Unknown
Launch site
Air Force Western Test Range (AFWTR)
Object type
Payload
Rocket body
Debris
Shape & HBR
Unknown shape, 0.1 m
Radar Cross Section
Medium (>0.1 m² and <1 m²)

Expand to show TLE details & history
Last TLE update: 16 hours ago

TLE from 16 hours ago
0 OPS 4682 DEB
1 38450U 65027FF  26174.80185121 -.00000405  00000-0 -13604-2 0  9993
2 38450  90.2376   7.4741 0025122 226.9237 132.9783 13.00484992632975
Epoch: 2026-06-23T19:14Z
TLE epoch observation values (Epoch: 2026-06-23T19:14:39.944Z)
Latitude
-0.00001°
Longitude
166.83947°
Altitude
1,276.181 km
Speed
7.211 km/s
True Right ascension
00h 29m 53s
True Declination
0° 00' 00"
Sunlit
Object was in daylight at epoch
Visualization orbit readout
Latitude
Unknown
Longitude
Unknown
Altitude
Unknown
Speed
Unknown
Apparent Right ascension
Unknown
Apparent Declination
Unknown
Sunlit
N/A
Visualization observer readout
Local Sidereal Time
22:44:02
Azimuth
Unknown
Elevation
Unknown
Doppler factor
Unknown
Orbital elements
Apogee altitude
1,276.495 km
Perigee altitude
1,238.131 km
Semi-major axis
7,635.45 km
Eccentricity
0.00251
Inclination
90.2376°
RAAN
7.4741°
Arg. of periapsis
226.9237°
True anomaly
133.18846°
Mean anomaly
132.9783°
Eccentric anomaly
133.08343°
Mean motion
3.25305 °/min
Orbital period
110.67 mins
BSTAR
-0.0013604
Loading maneuver chart data...
Computing Atmospheric mass density...
Loading historical data...
Loading historical data...
Loading historical data...
Loading historical data...
Loading historical data...
Loading historical data...
Loading historical data...

Documentation

Showing up to 5 results
|